GW2484 Weather Reports


Display with metric or nautical units.
time (UTC)temp
F
wind
direction
speed
MPH
gust
MPH
rain 1hr
in
rain 24hr
in
rain mn
in
humidity
%
barometer
mb
20260906044531 83 248 0.0 5.0 0.00 0.00 0.00 66 1012.9
20260906044002 83 248 3.0 5.0 0.00 0.00 0.00 67 1012.9
20260906043509 83 296 1.0 2.0 0.00 0.00 0.00 67 1012.7
20260906043014 83 298 0.0 0.0 0.00 0.00 0.00 66 1012.7
20260906042503 83 298 0.0 0.0 0.00 0.00 0.00 66 1012.7
20260906042008 83 298 0.0 0.0 0.00 0.00 0.00 66 1012.6
20260906041504 83 298 0.0 0.0 0.00 0.00 0.00 65 1012.6
20260906041001 83 298 0.0 0.0 0.00 0.00 0.00 65 1012.6
20260906040509 84 298 0.0 0.0 0.00 0.00 0.00 64 1012.7
20260906040003 84 298 0.0 0.0 0.00 0.00 0.00 64 1012.6
20260906035509 84 298 0.0 0.0 0.00 0.00 0.00 64 1012.7
20260906035021 84 298 0.0 0.0 0.00 0.00 0.00 64 1012.7
20260906034503 84 298 0.0 0.0 0.00 0.00 0.00 64 1012.7
20260906034009 84 298 0.0 0.0 0.00 0.00 0.00 64 1012.6
20260906033505 84 298 0.0 0.0 0.00 0.00 0.00 63 1012.5
20260906033014 85 298 0.0 0.0 0.00 0.00 0.00 63 1012.5
20260906032507 85 298 0.0 0.0 0.00 0.00 0.00 63 1012.6
20260906032002 85 298 0.0 0.0 0.00 0.00 0.00 62 1012.7
20260906031522 85 298 0.0 0.0 0.00 0.00 0.00 62 1012.7
20260906031007 85 298 0.0 0.0 0.00 0.00 0.00 62 1012.7
20260906030504 86 298 0.0 0.0 0.00 0.00 0.00 61 1012.8
20260906030016 86 298 0.0 0.0 0.00 0.00 0.00 60 1012.8
20260906025506 86 298 0.0 0.0 0.00 0.00 0.00 60 1012.7
20260906025004 86 298 0.0 2.0 0.00 0.00 0.00 60 1012.7
20260906024513 86 298 1.0 3.0 0.00 0.00 0.00 60 1012.5
20260906024002 86 298 1.0 3.0 0.00 0.00 0.00 60 1012.5
20260906023512 86 162 0.0 0.0 0.00 0.00 0.00 59 1012.3
20260906023013 86 162 0.0 0.0 0.00 0.00 0.00 58 1012.3
20260906022503 86 162 0.0 0.0 0.00 0.00 0.00 58 1012.1
20260906022010 87 162 0.0 0.0 0.00 0.00 0.00 57 1012.0
20260906021510 87 162 0.0 0.0 0.00 0.00 0.00 57 1012.0
20260906021003 87 162 0.0 0.0 0.00 0.00 0.00 56 1011.9
20260906020510 87 162 0.0 0.0 0.00 0.00 0.00 56 1012.0
20260906020008 88 162 0.0 0.0 0.00 0.00 0.00 55 1011.9
20260906015513 88 162 0.0 0.0 0.00 0.00 0.00 55 1011.9
20260906015007 88 162 0.0 0.0 0.00 0.00 0.00 54 1011.9
20260906014504 88 162 0.0 0.0 0.00 0.00 0.00 54 1011.8
20260906014010 89 162 0.0 0.0 0.00 0.00 0.00 54 1011.8
20260906013506 89 162 0.0 0.0 0.00 0.00 0.00 52 1011.8
20260906013004 89 162 0.0 0.0 0.00 0.00 0.00 52 1011.7
20260906012513 90 162 0.0 0.0 0.00 0.00 0.00 52 1011.5
20260906012005 90 162 0.0 0.0 0.00 0.00 0.00 51 1011.5
20260906011524 91 162 0.0 0.0 0.00 0.00 0.00 49 1011.4
20260906011009 91 162 0.0 0.0 0.00 0.00 0.00 49 1011.4
20260906010503 92 162 0.0 0.0 0.00 0.00 0.00 48 1011.4
20260906010023 92 162 0.0 0.0 0.00 0.00 0.00 48 1011.3
20260906005510 93 162 0.0 0.0 0.00 0.00 0.00 47 1011.3
20260906005003 93 162 0.0 0.0 0.00 0.00 0.00 46 1011.3
20260906004517 94 162 0.0 0.0 0.00 0.00 0.00 45 1011.3
20260906004003 94 162 0.0 0.0 0.00 0.00 0.00 45 1011.3
20260906003515 95 162 0.0 0.0 0.00 0.00 0.00 43 1011.3
20260906003012 96 162 0.0 0.0 0.00 0.00 0.00 43 1011.3
20260906002504 96 162 0.0 2.0 0.00 0.00 0.00 41 1011.3
20260906002012 97 162 0.0 2.0 0.00 0.00 0.00 41 1011.3
20260906001508 97 187 0.0 2.0 0.00 0.00 0.00 40 1011.3
20260906001003 98 187 0.0 3.0 0.00 0.00 0.00 40 1011.3
20260906000512 98 187 1.0 3.0 0.00 0.00 0.00 39 1011.3
20260906000008 98 192 2.0 4.0 0.00 0.00 0.00 38 1011.2
20260905235515 99 186 2.0 4.0 0.00 0.00 0.00 37 1011.2
20260905235008 99 181 2.0 4.0 0.00 0.00 0.00 36 1011.2
20260905234528 100 219 1.0 4.0 0.00 0.00 0.00 1011.2
20260905234012 100 179 1.0 4.0 0.00 0.00 0.00 1011.1
20260905233507 101 215 0.0 4.0 0.00 0.00 0.00 1011.0
20260905233006 101 187 1.0 5.0 0.00 0.00 0.00 1011.0
20260905232512 101 175 1.0 5.0 0.00 0.00 0.00 35 1011.0
20260905232006 101 279 1.0 7.0 0.00 0.00 0.00 35 1011.0
20260905231526 101 164 2.0 9.0 0.00 0.00 0.00 34 1011.0
20260905231011 101 187 3.0 8.0 0.00 0.00 0.00 33 1011.1
20260905230504 102 196 3.0 8.0 0.00 0.00 0.00 33 1011.1
20260905230037 102 183 1.0 7.0 0.00 0.00 0.00 34 1011.0
20260905225510 102 173 4.0 8.0 0.00 0.00 0.00 33 1011.1
20260905225018 102 216 4.0 8.0 0.00 0.00 0.00 34 1011.1
20260905224549 102 196 3.0 8.0 0.00 0.00 0.00 34 1011.1
20260905224004 102 207 2.0 7.0 0.00 0.00 0.00 33 1011.2
20260905223514 102 191 2.0 6.0 0.00 0.00 0.00 33 1011.2
20260905223020 102 175 3.0 7.0 0.00 0.00 0.00 33 1011.3
20260905222506 102 153 4.0 10.0 0.00 0.00 0.00 33 1011.3
20260905222014 102 164 3.0 10.0 0.00 0.00 0.00 32 1011.3
20260905221513 102 158 3.0 8.0 0.00 0.00 0.00 32 1011.4
20260905221017 102 156 3.0 8.0 0.00 0.00 0.00 36 1011.4
20260905220513 101 181 5.0 8.0 0.00 0.00 0.00 34 1011.4
20260905220010 102 189 1.0 8.0 0.00 0.00 0.00 33 1011.5
20260905215515 103 181 3.0 8.0 0.00 0.00 0.00 32 1011.5
20260905215014 103 119 3.0 8.0 0.00 0.00 0.00 33 1011.6
20260905214508 103 183 3.0 9.0 0.00 0.00 0.00 32 1011.6
20260905214016 103 194 5.0 9.0 0.00 0.00 0.00 33 1011.7
20260905213510 103 83 1.0 5.0 0.00 0.00 0.00 38 1011.7
20260905213036 102 110 2.0 6.0 0.00 0.00 0.00 36 1011.7
20260905212517 102 156 1.0 8.0 0.00 0.00 0.00 36 1011.7
20260905212008 102 190 4.0 8.0 0.00 0.00 0.00 35 1011.8
20260905211540 103 31 0.0 6.0 0.00 0.00 0.00 35 1011.8
20260905211016 102 100 3.0 8.0 0.00 0.00 0.00 37 1011.9
20260905210507 102 193 1.0 8.0 0.00 0.00 0.00 37 1012.0
20260905210039 101 275 2.0 9.0 0.00 0.00 0.00 37 1012.1
20260905205509 101 222 4.0 9.0 0.00 0.00 0.00 37 1012.2
20260905205019 101 32 0.0 10.0 0.00 0.00 0.00 36 1012.2
20260905204532 101 214 6.0 10.0 0.00 0.00 0.00 37 1012.3
20260905204010 102 279 4.0 8.0 0.00 0.00 0.00 37 1012.3
20260905203515 101 214 2.0 6.0 0.00 0.00 0.00 37 1012.4
20260905203020 100 171 2.0 8.0 0.00 0.00 0.00 39 1012.5
20260905202507 101 150 2.0 8.0 0.00 0.00 0.00 38 1012.6
20260905202013 101 129 4.0 8.0 0.00 0.00 0.00 38 1012.8
20260905201521 103 91 1.0 6.0 0.00 0.00 0.00 37 1012.8
20260905201015 102 60 1.0 6.0 0.00 0.00 0.00 40 1012.9
20260905200516 102 116 3.0 7.0 0.00 0.00 0.00 38 1013.0
20260905200034 101 140 3.0 12.0 0.00 0.00 0.00 38 1013.1
20260905195515 102 94 3.0 12.0 0.00 0.00 0.00 37 1013.2
20260905195011 102 132 5.0 8.0 0.00 0.00 0.00 38 1013.2
20260905194512 100 176 3.0 7.0 0.00 0.00 0.00 39 1013.2
20260905194016 101 163 2.0 5.0 0.00 0.00 0.00 40 1013.4
20260905193509 101 134 2.0 8.0 0.00 0.00 0.00 38 1013.4
20260905193031 101 131 3.0 10.0 0.00 0.00 0.00 39 1013.5
20260905192513 101 139 7.0 10.0 0.00 0.00 0.00 39 1013.6
20260905192011 101 261 1.0 8.0 0.00 0.00 0.00 39 1013.6
20260905191529 101 169 1.0 8.0 0.00 0.00 0.00 38 1013.8
20260905191016 100 151 5.0 8.0 0.00 0.00 0.00 41 1013.8
20260905190507 100 117 3.0 7.0 0.00 0.00 0.00 40 1013.8
20260905190030 101 170 1.0 10.0 0.00 0.00 0.00 39 1013.9
20260905185512 100 130 3.0 10.0 0.00 0.00 0.00 41 1014.0
20260905185018 100 147 4.0 9.0 0.00 0.00 0.00 40 1014.0
20260905184535 99 212 0.0 6.0 0.00 0.00 0.00 41 1014.0
20260905184012 99 179 1.0 9.0 0.00 0.00 0.00 41 1014.1
20260905183506 99 262 3.0 9.0 0.00 0.00 0.00 41 1014.2
20260905183004 99 177 2.0 6.0 0.00 0.00 0.00 42 1014.2
20260905182515 99 294 2.0 8.0 0.00 0.00 0.00 43 1014.3
20260905182004 99 216 2.0 9.0 0.00 0.00 0.00 42 1014.3
20260905181523 98 282 5.0 9.0 0.00 0.00 0.00 42 1014.3
20260905181006 99 279 2.0 6.0 0.00 0.00 0.00 41 1014.4
20260905180518 99 12 2.0 5.0 0.00 0.00 0.00 43 1014.5
20260905180017 99 290 1.0 5.0 0.00 0.00 0.00 42 1014.5
20260905175507 98 248 2.0 5.0 0.00 0.00 0.00 42 1014.6
20260905175003 98 285 1.0 5.0 0.00 0.00 0.00 42 1014.7
20260905174514 98 292 2.0 6.0 0.00 0.00 0.00 45 1014.9
20260905174004 98 279 3.0 6.0 0.00 0.00 0.00 43 1014.9
20260905173518 97 180 3.0 8.0 0.00 0.00 0.00 45 1015.0
20260905173011 97 258 3.0 8.0 0.00 0.00 0.00 45 1015.1
20260905172504 98 177 2.0 8.0 0.00 0.00 0.00 42 1015.1
20260905172011 98 358 1.0 5.0 0.00 0.00 0.00 44 1015.2
20260905171508 97 302 0.0 6.0 0.00 0.00 0.00 46 1015.2
20260905171003 97 254 2.0 6.0 0.00 0.00 0.00 44 1015.3
20260905170510 97 258 1.0 4.0 0.00 0.00 0.00 44 1015.4
20260905170009 97 170 1.0 4.0 0.00 0.00 0.00 45 1015.4
20260905165514 97 188 1.0 8.0 0.00 0.00 0.00 45 1015.4
20260905165008 96 259 2.0 8.0 0.00 0.00 0.00 44 1015.5
20260905164510 97 225 3.0 7.0 0.00 0.00 0.00 45 1015.5
20260905164012 96 242 3.0 7.0 0.00 0.00 0.00 46 1015.6
20260905163507 96 167 2.0 4.0 0.00 0.00 0.00 48 1015.5
20260905163004 96 184 2.0 3.0 0.00 0.00 0.00 49 1015.5
20260905162512 95 223 1.0 3.0 0.00 0.00 0.00 49 1015.5
20260905162005 95 246 1.0 7.0 0.00 0.00 0.00 49 1015.5
20260905161526 94 200 1.0 7.0 0.00 0.00 0.00 49 1015.6
20260905161006 94 205 2.0 6.0 0.00 0.00 0.00 49 1015.6
20260905160503 95 196 2.0 5.0 0.00 0.00 0.00 51 1015.6
20260905160020 93 210 0.0 4.0 0.00 0.00 0.00 1015.6
20260905155519 93 211 1.0 4.0 0.00 0.00 0.00 54 1015.6
20260905155002 92 182 1.0 5.0 0.00 0.00 0.00 54 1015.5
20260905154516 93 212 1.0 5.0 0.00 0.00 0.00 51 1015.6
20260905154004 92 279 1.0 4.0 0.00 0.00 0.00 53 1015.6
20260905153516 92 248 3.0 4.0 0.00 0.00 0.00 52 1015.5
20260905153018 91 219 2.0 3.0 0.00 0.00 0.00 55 1015.5
20260905152504 91 231 2.0 3.0 0.00 0.00 0.00 54 1015.4
20260905152013 92 210 1.0 5.0 0.00 0.00 0.00 55 1015.5
20260905151519 91 323 1.0 5.0 0.00 0.00 0.00 55 1015.4
20260905151005 91 216 3.0 5.0 0.00 0.00 0.00 54 1015.4
20260905150514 90 293 3.0 5.0 0.00 0.00 0.00 56 1015.4
20260905150008 89 270 2.0 5.0 0.00 0.00 0.00 56 1015.4
20260905145515 89 224 1.0 5.0 0.00 0.00 0.00 57 1015.4
20260905145011 89 297 3.0 5.0 0.00 0.00 0.00 58 1015.3
20260905144532 88 214 1.0 5.0 0.00 0.00 0.00 59 1015.3
20260905144012 88 212 2.0 5.0 0.00 0.00 0.00 59 1015.3
20260905143511 87 262 2.0 4.0 0.00 0.00 0.00 61 1015.3
20260905143006 87 224 2.0 6.0 0.00 0.00 0.00 61 1015.2
20260905142512 86 247 2.0 6.0 0.00 0.00 0.00 62 1015.2
20260905142004 86 236 1.0 4.0 0.00 0.00 0.00 62 1015.2
20260905141528 86 227 1.0 4.0 0.00 0.00 0.00 63 1015.2
20260905141010 85 220 2.0 4.0 0.00 0.00 0.00 63 1015.2
20260905140506 85 232 1.0 4.0 0.00 0.00 0.00 64 1015.2
20260905140024 84 234 2.0 4.0 0.00 0.00 0.00 65 1015.2
20260905135510 84 238 2.0 4.0 0.00 0.00 0.00 65 1015.1
20260905135015 84 243 1.0 4.0 0.00 0.00 0.00 66 1015.1
20260905134523 83 215 2.0 3.0 0.00 0.00 0.00 68 1015.2
20260905134008 82 165 0.0 2.0 0.00 0.00 0.00 69 1015.1
20260905133515 82 165 0.0 2.0 0.00 0.00 0.00 70 1015.0
20260905133024 81 131 1.0 2.0 0.00 0.00 0.00 72 1015.0
20260905132506 80 89 0.0 2.0 0.00 0.00 0.00 74 1014.9
20260905132017 79 71 0.0 2.0 0.00 0.00 0.00 75 1014.9
20260905131531 78 340 0.0 2.0 0.00 0.00 0.00 77 1014.9
20260905131008 77 332 0.0 2.0 0.00 0.00 0.00 80 1014.9
20260905130513 76 332 0.0 1.0 0.00 0.00 0.00 81 1014.8
20260905130034 75 175 0.0 0.0 0.00 0.00 0.00 81 1014.7
20260905125521 75 200 0.0 0.0 0.00 0.00 0.00 81 1014.6
20260905125014 75 200 0.0 0.0 0.00 0.00 0.00 81 1014.5
20260905124507 75 200 0.0 0.0 0.00 0.00 0.00 81 1014.5
20260905124019 75 200 0.0 0.0 0.00 0.00 0.00 81 1014.6
20260905123511 75 200 0.0 0.0 0.00 0.00 0.00 81 1014.7
20260905123035 74 200 0.0 0.0 0.00 0.00 0.00 81 1014.6
20260905122517 74 200 0.0 0.0 0.00 0.00 0.00 81 1014.5
20260905122016 74 200 0.0 0.0 0.00 0.00 0.00 80 1014.4
20260905121530 74 200 0.0 0.0 0.00 0.00 0.00 80 1014.4
20260905121014 75 200 0.0 0.0 0.00 0.00 0.00 80 1014.4
20260905120510 75 200 0.0 0.0 0.00 0.00 0.00 80 1014.3
20260905120029 75 200 0.0 0.0 0.00 0.00 0.00 80 1014.3
20260905115511 75 200 0.0 0.0 0.00 0.00 0.00 79 1014.2
20260905115020 75 200 0.0 0.0 0.00 0.00 0.00 79 1014.2
20260905114528 75 200 0.0 0.0 0.00 0.00 0.00 79 1014.2
20260905114011 75 200 0.0 0.0 0.00 0.00 0.00 79 1014.3
20260905113524 75 200 0.0 0.0 0.00 0.00 0.00 78 1014.3
20260905113023 75 200 0.0 0.0 0.00 0.00 0.00 78 1014.2
20260905112510 75 200 0.0 0.0 0.00 0.00 0.00 78 1014.2
20260905112015 75 200 0.0 0.0 0.00 0.00 0.00 78 1014.1
20260905111520 75 200 0.0 0.0 0.00 0.00 0.00 77 1014.1
20260905111018 75 200 0.0 0.0 0.00 0.00 0.00 77 1014.2
20260905110515 76 200 0.0 0.0 0.00 0.00 0.00 77 1014.1
20260905110019 76 200 0.0 0.0 0.00 0.00 0.00 77 1014.0
20260905105517 76 200 0.0 0.0 0.00 0.00 0.00 77 1013.9
20260905105013 76 200 0.0 0.0 0.00 0.00 0.00 77 1014.0
20260905104513 76 200 0.0 0.0 0.00 0.00 0.00 76 1014.0
20260905104019 76 200 0.0 0.0 0.00 0.00 0.00 76 1014.0
20260905103515 76 200 0.0 0.0 0.00 0.00 0.00 75 1013.9
20260905103036 76 200 0.0 0.0 0.00 0.00 0.00 75 1013.9
20260905102516 76 200 0.0 2.0 0.00 0.00 0.00 75 1013.8
20260905102010 76 200 0.0 2.0 0.00 0.00 0.00 75 1013.8
20260905101533 76 200 0.0 2.0 0.00 0.00 0.00 75 1013.9
20260905101015 76 200 1.0 2.0 0.00 0.00 0.00 75 1013.9
20260905100508 76 200 0.0 1.0 0.00 0.00 0.00 75 1013.8
20260905100108 76 200 0.0 0.0 0.00 0.00 0.00 75 1013.7
20260905095511 76 200 0.0 0.0 0.00 0.00 0.00 75 1013.7
20260905095015 76 200 0.0 2.0 0.00 0.00 0.00 75 1013.7
20260905094541 76 200 0.0 2.0 0.00 0.00 0.00 75 1013.8
20260905094014 76 200 0.0 2.0 0.00 0.00 0.00 75 1013.8
20260905093503 76 200 0.0 1.0 0.00 0.00 0.00 76 1013.7
20260905093004 76 200 0.0 0.0 0.00 0.00 0.00 76 1013.8
20260905092506 77 201 0.0 0.0 0.00 0.00 0.00 76 1013.7
20260905092007 77 201 0.0 0.0 0.00 0.00 0.00 76 1013.7
20260905091510 77 201 0.0 0.0 0.00 0.00 0.00 75 1013.8
20260905091003 77 201 0.0 0.0 0.00 0.00 0.00 75 1013.7
20260905090504 77 201 0.0 0.0 0.00 0.00 0.00 74 1013.7
20260905090007 77 201 0.0 0.0 0.00 0.00 0.00 74 1013.6
20260905085505 77 201 0.0 0.0 0.00 0.00 0.00 74 1013.6
20260905085004 77 201 0.0 0.0 0.00 0.00 0.00 73 1013.7
20260905084504 77 201 0.0 0.0 0.00 0.00 0.00 73 1013.7
20260905084005 77 201 0.0 0.0 0.00 0.00 0.00 73 1013.7
20260905083504 77 201 0.0 0.0 0.00 0.00 0.00 73 1013.7
20260905083005 78 201 0.0 0.0 0.00 0.00 0.00 73 1013.7
20260905082503 78 201 0.0 0.0 0.00 0.00 0.00 73 1013.7
20260905082003 78 201 0.0 0.0 0.00 0.00 0.00 72 1013.7
20260905081508 78 201 0.0 0.0 0.00 0.00 0.00 72 1013.7
20260905081005 78 201 0.0 0.0 0.00 0.00 0.00 72 1013.7
20260905080504 78 201 0.0 0.0 0.00 0.00 0.00 72 1013.7
20260905080007 78 201 0.0 0.0 0.00 0.00 0.00 72 1013.7
20260905075504 78 201 0.0 0.0 0.00 0.00 0.00 72 1013.7
20260905075005 78 201 0.0 0.0 0.00 0.00 0.00 72 1013.7
20260905074515 78 201 0.0 0.0 0.00 0.00 0.00 71 1013.7
20260905074007 78 201 0.0 0.0 0.00 0.00 0.00 71 1013.7
20260905073506 78 201 0.0 0.0 0.00 0.00 0.00 71 1013.7
20260905073007 78 201 0.0 0.0 0.00 0.00 0.00 71 1013.6
20260905072507 78 201 0.0 0.0 0.00 0.00 0.00 71 1013.5
20260905072006 78 201 0.0 0.0 0.00 0.00 0.00 71 1013.6
20260905071508 78 201 0.0 0.0 0.00 0.00 0.00 71 1013.6
20260905071003 79 201 0.0 0.0 0.00 0.00 0.00 70 1013.6
20260905070504 79 201 0.0 0.0 0.00 0.00 0.00 69 1013.6
20260905070009 79 201 0.0 0.0 0.00 0.00 0.00 69 1013.6
20260905065507 79 201 0.0 0.0 0.00 0.00 0.00 69 1013.7
20260905065003 79 201 0.0 0.0 0.00 0.00 0.00 69 1013.8
20260905064512 79 201 0.0 0.0 0.00 0.00 0.00 68 1013.7
20260905064005 79 201 0.0 0.0 0.00 0.00 0.00 68 1013.8
20260905063504 80 201 0.0 0.0 0.00 0.00 0.00 68 1013.7
20260905063010 80 201 0.0 0.0 0.00 0.00 0.00 67 1013.8
20260905062508 80 201 0.0 0.0 0.00 0.00 0.00 67 1013.8
20260905062008 80 201 0.0 0.0 0.00 0.00 0.00 67 1013.8
20260905061512 80 201 0.0 0.0 0.00 0.00 0.00 66 1013.8
20260905061006 80 201 0.0 0.0 0.00 0.00 0.00 66 1013.7
20260905060509 81 201 0.0 0.0 0.00 0.00 0.00 66 1013.7
20260905060013 81 201 0.0 0.0 0.00 0.00 0.00 65 1013.7
20260905055506 81 201 0.0 0.0 0.00 0.00 0.00 65 1013.6
20260905055007 81 201 0.0 0.0 0.00 0.00 0.00 65 1013.7
20260905054533 81 201 0.0 0.0 0.00 0.00 0.00 64 1013.7
20260905054007 82 201 0.0 0.0 0.00 0.00 0.00 64 1013.6
20260905053508 82 201 0.0 0.0 0.00 0.00 0.00 63 1013.5
20260905053009 82 201 0.0 0.0 0.00 0.00 0.00 63 1013.5
20260905052509 82 201 0.0 0.0 0.00 0.00 0.00 63 1013.5
20260905052008 82 201 0.0 2.0 0.00 0.00 0.00 62 1013.6
20260905051515 82 201 0.0 2.0 0.00 0.00 0.00 62 1013.6
20260905051007 83 201 0.0 2.0 0.00 0.00 0.00 62 1013.6
20260905050510 83 200 0.0 2.0 0.00 0.00 0.00 62 1013.6
20260905050011 83 200 0.0 0.0 0.00 0.00 0.00 61 1013.6
20260905045513 83 200 0.0 0.0 0.00 0.00 0.00 61 1013.7
20260905045003 83 200 0.0 0.0 0.00 0.00 0.00 61 1013.7